Погода в Вельске

Погода в Вельске : погода сейчас, прогноз погоды и архив. Всё, что Вы хотите узнать о погоде в Вельске!

Поиск расширенной информации на нашем сайте:

Другие новости

Новости СМИ2

Главная страница сайта

Новости сайта

03.07.2017

Напоминаем, что на нашем специализированном сайте Метеоцентр.Азия вы можете получить высокодетализированные автоматические прогнозы погоды по пунктам России, СНГ и мира в авиационном формате (включающие направление и скорость ветра, видимость, явления погоды, количество и форму облачности, нижнюю и верхнюю границу облачности).


Погода в Вельске - сегодня

Время (UTC), дата Ветер
(°,м/с) 
Видим.   Явления Облачность Т
(°С)
Тd
(°С)
f(%) Тe
(°С)
Pmin
(гПа)
dP
(гПа)
Po
(мм)
O2
(г/м3)
Тmin Tmax R s Состояние
почвы
06 16.01.18 160 (Ю) 10 км  слаб. ливневой снег  10/10 480 м кучево-дожд. 
[Cb cap]
-5.8 -6.9 92 -7  1031.1  -0.9  764  315           
09 16.01.18 170 (Ю) 20000 м  слаб. ливневой снег  8/6 450 м кучево-дожд., средняя, верхняя 
[Cb cap|Ac trans|Ci fib]
-3.8 -5.5 88 -5  1030.3  -0.7  764  313           
12 16.01.18 160 (Ю) 20000 м  {ливн. осадки}  10/10 570 м 
[Sc]
-3.7 -5.3 89 -5  1029.1  -1.2  763  312           
15 16.01.18 200 (Ю) 20000 м  {ливн. осадки}  10/10 720 м 
[Sc]
-4.1 -7.2 79 -6  1028.2  -0.9  762  313    -3.5  0.0     
18 16.01.18 190 (Ю) 20000 м  {ливн. осадки}  10/10 720 м 
[Sc]
-4.8 -8.2 77 -6  1027.2  -1  762  313           
21 16.01.18 180 (Ю) 20000 м    10/10 660 м 
[Sc]
-5.4 -8.2 81 -8  1026.6  -0.6  761  314           
00 17.01.18 160 (Ю) 20000 м    10/10 700 м 
[Sc]
-6.4 -8.3 86 -8  1025.9  -0.8  761  315           
03 17.01.18 140 (ЮВ) 20000 м    10/10 500 м 
[Sc]
-7 -8.5 89 -8  1024.7  -1.2  760  315  -7      25  равномерный
сухой снег
100% 
06 17.01.18 160 (Ю) 20000 м    10/10 480 м 
[Sc]
-7.2 -8.6 90 -9  1023.7  -0.9  759  315  -7.3         
09 17.01.18 160 (Ю) 20000 м    10/10 500 м 
[Sc]
-6.9 -9 85 -8  1023  -0.7  758  314           
12 17.01.18 180 (Ю) 20000 м    9/9 660 м 
[Sc]
-6.7 -9.5 80 -8  1022.3  -0.7  758  314           
15 17.01.18 140 (ЮВ) 20000 м    9/8 600 м средняя 
[Sc|Ac trans]
-7.8 -10.3 82 -8  1021.6  -0.8  757  315    -6.5       
18 17.01.18 110 (В) 20000 м    10/10 500 м 
[Sc]
-8.3 -10.3 85 -8  1021  -0.6  757  316           
21 17.01.18 130 (ЮВ) 20000 м    10/10 480 м 
[Sc]
-7.7 -9.5 87 -9  1020.4  -0.5  757  315           
00 18.01.18 120 (ЮВ) 20000 м    10/10 400 м 
[St]
-8.8 -10.1 90 -9  1019.8  -0.7  756  316           
03 18.01.18 110 (В) 20000 м  слаб. ливневой снег  10/10 420 м кучево-дожд. 
[Cb cap]
-11.2 -12.6 89 -13  1018.8  -1.1  755  318  -11.2    0.0  25  равномерный
сухой снег
100% 
06 18.01.18 120 (ЮВ) 20000 м  слаб. снег{ливн. осадки}  10/10 360 м 
[Frnb|Ns]
-11.9 -13.3 89 -14  1018.1  -0.7  755  319  -12.1         
09 18.01.18 150 (ЮВ) 10 км  слаб. снег  10/10 330 м 
[Frnb|Ns]
-11.6 -13.4 86 -15  1018.6  0.6  755  319           
12 18.01.18 110 (В) 20000 м  {снег}  9/6 300 м средняя 
[Sc|Ac trans]
-11.8 -14.2 82 -14  1017  -1.7  754  319           
15 18.01.18 110 (В) 10 км  слаб. снег  10/10 360 м 
[Frnb|Ns]
-11 -12.9 86 -13  1015.7  -1.2  753  317    -11  0.3     
18 18.01.18 120 (ЮВ) 10 км  слаб. снег  10/10 360 м 
[Frnb|Ns]
-9.8 -11.3 89 -13  1015.2  -0.4  753  316           
21 18.01.18 130 (ЮВ) 20000 м  в посл. час снег  10/10 450 м 
[Sc]
-8.9 -10.7 87 -11  1016.2  1.1  753  315           
00 19.01.18 130 (ЮВ) 20000 м  {ливн. осадки, снег}  10/10 540 м 
[Sc]
-8.7 -10.6 86 -10  1016.7  0.5  754  315           
03 19.01.18 140 (ЮВ) 20000 м    10/10 700 м 
[Sc]
-7.7 -10.1 83 -10  1016.9  0.2  754  314  -11    28  равномерный
сухой снег
100% 
06 19.01.18 130 (ЮВ) 20000 м  {ливн. осадки}  10/10 600 м 
[Sc]
-7.3 -9.9 82 -9  1018.5  1.6  755  314           
Время (UTC), дата Ветер
(°,м/с) 
Видим.   Явления Облачность Т
(°С)
Тd
(°С)
f(%) Тe
(°С)
Pmin
(гПа)
dP
(гПа)
Po
(мм)
O2
(г/м3)
Тmin Tmax R s Состояние
почвы

Для получения пояснительной информации подведите курсор к названию столбца.

ПОГОДА в Вельске - архив

Всё, что Вы хотите узнать о погоде в Вельске - удобно и подробно!

Выберите нужную дату (начиная с 1 января 2015* года) и нажмите кнопку "Найти".
Будут отображены архивные сводки погоды по пункту Вельск, начиная с указанной даты.


Отображать данные в формате CSV (для использования в таблицах Excel)


Внимание! Наш архив погоды предназначен исключительно для личного некоммерческого использования в познавательных целях. Если Вам необходимы официальные справки о состоянии погоды (для производственных, юридических, коммерческих и т.п. целей), обращайтесь в органы Росгидромета.

*Примечание: данная дата относится к архиву по метеостанциям СССР (Россия, СНГ, Балтия).
Архив по метеостанциям Зарубежной Европы и Азии (кроме Китая) хранится 10 дней, по другим регионам земного шара (Китай, Африка, Америка, Австралия, Океания) - 1 день.

Вельск - район местоположения метеостанции


Название, широта, долгота, высота метеостанции:
Вельск 61.1°ш. 42.1°д. 91 м над ур. моря [Российская Федерация]

Дополнительная информация

В oтличие oт бoльшинства пoгoдных сайтoв мы публикуем пoдрoбную метеoинфoрмацию в детальнoм прoфессиoнальнoм фoрмате.

Характеристики температуры и влажнoсти вoздуха измеряются на высoте 2 м в тени вдали oт зданий и деревьев.
Скoрoсть ветра измеряется на высoте 10 м (на урoвне рoста челoвека скoрoсть ветра ниже в 1.5-2 раза). Если метеoстанция нахoдится в гoрoде или в лесу, тo скoрoсть ветра занижена на 2-4 м/с пo сравнению с oткрытым местoм. Скoрoсть ветра над акватoриями крупных рек и oзёр, а также на вершинах хoлмoв на 2-5 м/с выше, чем в oбычных услoвиях.
Атмoсфернoе давление в разных тoчках местнoсти мoжет значительнo oтличаться oт давления на метеoстанции, в зависимoсти oт услoвий рельефа (при пoдъёме на 10 м давление пoнижается примернo на 1 мм рт.ст.).